Notices

What's New in latest Release from April 7th, 2021:

- Updated Glossary, including Speed of Maximum Gust, and Total Hourly Precipitation

- Updated national and regional climate services offices contacts and prices information

- Addition of station inventory lists for 1981-2010, 1971-2000, and 1961-1990 Normals.

If you haven't already, please take our survey and provide feedback about our website: https://eccc.sondage-survey.ca/f/LanguageSelection.aspx?s=442ca660-fcf1-47c0-95a9-59707d6fd709

Hourly Data Report for May 04, 2020

MIRAMICHI RCS
NEW BRUNSWICK
Current Station Operator: ECCC - MSC

47°00'34.000" N
65°27'54.000" W
33.00 m
8100989
71744
ACQ

Download Data

Hourly Data (May 2020)
Hourly Data Report for May 4, 2020
TIME
LST
Temp Definition
°C
Dew Point Definition
°C
Rel Hum Definition
%
Precip. Amount Definition
mm

Wind Dir Definition
10's deg

Wind Spd Definition
km/h
Visibility Definition
km
Stn Press Definition
kPa
Hmdx Definition


Wind Chill Definition


Weather Definition


00:00 8.0 2.0 66 LegendMM 14 11   100.09     LegendNANA
01:00 7.2 1.2 66 LegendMM 12 10   100.05     LegendNANA
02:00 5.8 0.3 67 LegendMM 10 11   99.97     LegendNANA
03:00 5.4 1.8 78 LegendMM 11 4   100.00     LegendNANA
04:00 5.7 2.3 79 LegendMM 8 9   99.94     LegendNANA
05:00 5.0 4.1 94 LegendMM 7 14   99.81     LegendNANA
06:00 5.8 5.1 95 LegendMM 10 8   99.84     LegendNANA
07:00 6.3 5.4 94 LegendMM 10 6   99.90     LegendNANA
08:00 6.3 5.8 97 LegendMM 3 10   99.81     LegendNANA
09:00 7.2 6.7 97 LegendMM 6 18   99.69     LegendNANA
10:00 6.6 6.1 97 LegendMM 8 15   99.74     LegendNANA
11:00 6.5 6.2 98 LegendMM 7 15   99.70     LegendNANA
12:00 6.3 6.0 98 LegendMM 7 17   99.67     LegendNANA
13:00 4.9 4.6 98 LegendMM 6 22   99.62     LegendNANA
14:00 4.6 4.4 98 LegendMM 4 16   99.64     LegendNANA
15:00 4.2 4.0 98 LegendMM 3 18   99.65     LegendNANA
16:00 3.7 3.1 96 LegendMM 4 17   99.63     LegendNANA
17:00 3.4 2.9 97 LegendMM 4 19   99.63     LegendNANA
18:00 3.2 2.8 97 LegendMM 3 18   99.64     LegendNANA
19:00 3.1 2.7 97 LegendMM 3 17   99.65     LegendNANA
20:00 2.9 2.6 98 LegendMM 4 17   99.70     LegendNANA
21:00 2.7 2.2 97 LegendMM 3 14   99.73     LegendNANA
22:00 2.4 2.0 98 LegendMM 3 17   99.71     LegendNANA
23:00 1.7 1.2 97 LegendMM 2 15   99.69     LegendNANA

Notes on Data Quality.

Legend

  • E = Estimated
  • M = Missing
  • NA = Not Available*
  • [empty] = Indicates an unobserved value
Date modified: